Theta_e
321 320 320 319 318 316 314 314 315 316 318 318 318 318 318 319 319 320 322 325 329 342 346 349 349 349 351 351 346 355 355 353 351 350 349 343 346 348 349 347 346 347 345 345 346
322 321 321 321 320 319 318 315 314 315 317 318 318 318 319 319 319 321 323 326 327 343 345 348 352 352 356 356 348 353 354 352 348 346 347 343 345 348 349 347 347 347 347 344 344
322 322 321 321 321 321 320 318 315 315 316 318 318 318 319 319 320 323 326 328 331 343 344 348 354 356 359 353 351 352 353 348 347 345 345 344 345 346 349 348 346 347 347 346 343
320 320 320 320 320 321 321 320 318 315 315 317 318 318 319 319 324 324 326 327 334 343 347 354 358 357 352 355 354 355 351 349 346 345 344 345 345 346 347 346 344 346 345 346 346
317 318 318 318 319 319 320 321 319 315 315 317 318 319 319 319 320 325 328 328 337 343 346 352 356 350 354 351 353 354 346 348 346 345 345 344 345 346 347 345 345 346 346 346 347
315 315 316 317 318 318 320 321 318 315 315 316 317 319 320 320 319 321 330 325 337 342 347 345 348 350 351 345 347 348 344 346 346 345 344 345 345 345 346 347 347 347 347 346 346
312 313 313 315 316 317 320 318 315 314 315 315 317 319 321 320 320 320 321 325 337 343 346 345 346 346 340 341 341 343 346 345 345 344 345 345 347 347 346 347 348 348 347 346 346
311 311 312 313 315 317 319 322 320 314 314 315 316 319 320 320 320 324 327 325 337 342 343 342 343 344 339 340 341 343 345 348 345 343 343 345 349 346 345 347 348 347 347 347 347
310 311 311 311 314 317 319 328 322 314 314 315 317 321 322 321 320 320 327 330 339 341 343 338 336 338 337 342 343 342 346 346 345 344 345 344 346 343 345 346 347 347 346 346 346
310 311 311 311 313 316 319 326 326 318 315 317 320 323 322 324 324 322 329 330 340 344 344 344 333 337 341 343 347 346 346 345 345 345 346 345 345 346 345 345 346 346 345 345 345
311 312 312 312 312 316 320 325 322 323 321 322 322 321 321 324 326 327 327 330 331 333 335 331 336 340 343 342 343 343 345 346 346 345 347 348 348 347 345 345 345 345 345 344 344
312 312 312 312 312 318 319 319 319 319 320 319 321 323 323 323 326 324 327 329 329 329 331 334 338 338 338 342 343 344 344 344 347 346 345 347 348 347 347 346 345 345 344 343 343
311 311 313 313 313 319 319 319 319 318 319 320 322 320 321 325 326 326 326 325 327 327 328 330 334 333 337 340 342 342 342 342 344 347 347 348 349 349 347 346 345 344 343 343 342
309 310 312 313 314 319 318 320 320 319 324 325 325 324 323 326 327 326 325 325 324 327 327 327 327 331 336 338 339 340 338 341 344 345 347 347 348 347 350 348 346 345 344 343 343
309 310 311 312 313 313 319 320 320 320 331 326 324 324 325 326 325 327 325 325 327 325 327 326 330 331 334 337 337 339 341 343 346 346 346 348 349 348 346 350 348 345 345 344 344
311 312 312 313 313 313 317 320 319 324 324 326 323 323 325 324 323 323 323 323 322 325 324 326 324 331 334 335 338 341 343 343 344 347 346 345 347 346 349 349 347 345 344 343 344
315 314 313 313 314 317 321 320 323 321 323 324 323 323 324 325 324 325 326 325 326 325 326 324 327 324 324 332 340 343 339 337 336 346 341 344 349 345 344 343 344 345 344 344 343
320 322 319 317 313 320 321 322 321 321 323 321 322 321 324 323 324 324 326 328 322 325 325 326 325 325 324 329 333 337 334 334 332 335 338 342 348 343 341 339 338 340 342 343 343
322 321 322 320 319 320 319 321 321 320 321 323 323 325 325 323 323 324 327 328 328 323 328 325 326 322 322 326 329 335 336 333 333 331 340 340 344 341 340 340 337 338 341 343 342
323 323 321 320 319 318 319 317 319 318 319 321 325 325 327 326 325 324 324 324 325 321 323 327 327 323 321 322 322 331 331 332 332 334 336 337 338 338 340 338 337 340 341 342 343
323 323 322 322 322 320 321 320 319 319 318 322 325 327 327 326 325 326 324 328 328 328 319 321 325 325 321 323 325 327 330 325 329 330 331 332 331 335 339 338 337 336 337 341 342
323 325 320 324 321 314 321 317 316 319 318 320 321 323 324 323 326 326 328 330 326 328 323 320 323 326 325 320 321 325 326 327 327 328 326 328 329 330 331 334 335 333 335 340 342
320 321 319 322 322 320 317 317 317 319 319 321 323 322 324 327 327 329 330 328 325 328 330 319 322 327 326 322 321 323 323 324 324 323 328 327 328 328 328 328 328 329 334 341 340
316 322 318 315 313 316 317 317 319 318 318 318 321 322 325 325 324 327 326 326 322 326 329 328 321 325 331 329 326 325 323 323 325 326 327 327 328 331 331 330 330 331 334 338 341
315 314 312 316 316 314 313 317 319 319 318 319 321 321 321 325 324 324 322 323 325 323 325 326 332 329 329 328 328 330 326 321 323 326 327 329 329 330 331 331 330 329 333 337 338
312 313 310 311 311 314 313 316 317 317 317 320 320 320 320 323 321 322 321 322 324 324 325 325 333 330 332 330 330 326 328 326 323 325 324 325 328 329 328 326 326 327 329 336 337
310 311 311 310 313 313 315 315 315 316 317 316 316 319 320 319 316 317 317 319 320 321 322 324 329 331 333 331 333 333 332 327 326 326 327 328 331 332 333 330 328 329 328 330 329
Wind_Speed
16 16 15 16 15 13 11 11 11 9 7 5 6 7 6 7 8 10 11 6 12 17 18 20 17 14 7 3 2 1 1 3 3 5 6 15 6 6 5 14 7 4 9 19 23
17 17 17 16 15 15 13 12 11 10 7 6 6 8 6 7 10 13 6 8 13 18 21 22 19 17 2 2 2 2 1 2 4 7 7 16 11 10 6 14 8 8 13 25 24
19 18 18 17 16 15 14 13 12 10 9 6 6 8 6 6 7 5 10 11 14 17 18 13 15 11 4 3 4 2 1 2 5 9 15 15 10 8 13 8 13 18 25 27 27
20 19 19 19 17 16 15 15 13 11 9 7 6 7 6 3 5 4 10 16 16 17 21 13 13 5 4 3 5 2 7 6 8 12 15 16 12 10 15 2 16 20 28 30 28
20 20 19 19 19 18 16 15 14 11 9 8 7 7 5 5 7 3 9 18 22 24 23 16 16 5 3 2 5 4 2 8 11 16 15 16 15 7 15 1 18 22 26 28 27
21 21 19 18 18 18 18 17 14 10 9 9 8 7 6 5 6 7 8 23 24 26 25 15 4 7 3 2 4 5 4 6 7 10 13 13 8 3 9 12 19 22 23 28 27
23 22 20 19 18 18 19 16 11 8 8 9 8 8 8 10 3 8 9 23 28 28 18 17 7 0 6 6 3 7 6 7 6 9 5 9 4 11 10 17 19 20 22 24 25
23 21 20 19 17 16 16 13 8 5 7 8 8 6 6 5 12 9 11 20 24 25 10 9 12 8 4 5 1 4 3 4 3 6 3 11 6 13 17 21 20 21 22 24 25
23 21 19 18 16 14 11 7 3 3 6 8 6 5 4 6 9 11 12 18 25 21 17 3 3 4 2 5 5 2 4 7 3 4 5 13 5 8 18 20 22 23 24 25 24
23 21 18 17 15 12 6 2 3 2 5 5 6 3 7 2 7 13 15 10 18 17 9 7 3 3 3 7 10 10 5 5 7 5 8 10 14 6 16 20 22 24 23 24 27
23 21 18 16 13 8 4 4 2 2 7 7 3 3 7 4 7 14 21 20 11 9 6 8 6 9 10 4 3 5 5 7 3 4 5 10 13 9 15 17 19 23 25 27 28
23 22 19 15 12 2 2 3 2 2 6 12 18 19 14 6 3 11 25 10 7 7 6 5 10 9 4 6 2 2 4 8 2 4 4 5 14 8 18 24 27 28 28 29 23
24 23 19 13 10 6 3 5 1 4 2 4 6 11 15 9 6 12 24 13 9 7 9 13 2 10 7 8 6 4 7 8 6 3 1 4 9 7 10 16 20 25 28 26 28
24 22 19 13 3 5 3 6 5 3 2 3 2 2 10 7 4 10 23 15 4 13 9 9 4 4 7 10 7 10 4 9 4 3 4 2 7 3 9 16 17 27 30 32 31
25 22 17 11 8 4 6 5 4 1 2 3 3 5 10 8 6 9 19 9 10 8 6 8 6 11 11 10 7 3 3 4 4 3 4 4 4 1 6 12 20 25 31 34 36
25 21 15 10 5 6 5 3 5 2 2 3 4 3 8 3 2 6 6 4 6 6 2 8 2 5 15 4 7 12 7 6 3 1 5 2 5 3 6 9 12 24 32 34 35
23 13 8 4 3 8 7 9 2 3 2 2 3 2 5 8 5 6 10 9 8 7 9 1 4 1 2 9 8 5 8 2 3 3 3 2 4 10 9 9 11 13 28 35 34
11 8 7 2 8 7 7 2 3 1 1 2 2 1 6 8 5 4 10 11 2 4 4 9 7 9 7 12 7 11 8 5 5 4 3 2 6 5 1 3 7 11 18 22 32
6 11 13 8 6 5 4 2 1 1 3 5 2 3 2 4 4 8 9 10 10 11 9 6 6 2 7 11 11 7 8 4 3 1 4 3 6 14 10 7 7 11 14 18 26
4 7 13 7 6 3 2 1 0 2 5 1 1 1 2 3 5 8 7 1 3 9 8 9 9 5 1 5 3 10 11 5 2 5 7 5 6 9 16 15 6 6 13 19 20
1 2 10 2 4 3 2 1 2 2 6 2 2 2 1 1 1 4 6 1 2 4 8 7 9 4 4 9 12 6 6 1 2 3 6 9 8 9 15 15 14 7 11 17 22
3 2 10 1 2 2 2 2 5 4 9 3 1 2 2 3 2 2 5 2 2 4 7 6 3 9 16 2 3 13 18 16 9 7 3 5 9 14 15 13 12 9 10 17 21
4 3 9 1 2 2 2 2 5 7 7 7 5 4 4 3 1 2 2 2 10 1 3 7 5 4 5 4 3 6 8 10 7 4 12 12 10 4 7 11 15 13 9 14 20
3 0 8 11 6 2 3 4 2 7 4 6 6 3 3 3 5 2 4 2 11 5 4 5 4 6 6 2 1 7 10 14 16 10 14 12 18 19 14 11 10 10 7 10 16
6 3 2 2 5 4 1 2 3 5 8 12 3 10 4 2 2 4 7 6 3 7 4 3 5 4 6 7 8 12 9 12 13 19 12 18 8 15 15 10 13 8 5 10 16
4 3 3 2 1 1 4 3 3 3 5 4 5 11 7 3 5 4 9 3 3 7 7 5 1 1 4 7 4 8 14 15 18 12 16 14 8 14 20 11 14 14 10 13 19
9 7 2 3 1 1 2 2 5 5 3 8 7 5 5 3 14 17 15 17 12 7 4 5 3 2 6 2 6 7 11 17 16 16 15 9 14 5 6 6 13 15 15 16 20
Wind_Direction
359 356 352 349 347 344 334 324 316 307 301 297 292 292 291 281 269 257 249 232 198 174 171 161 165 164 154 186 162 204 188 130 141 157 132 160 149 143 122 139 137 118 141 160 157
352 351 349 346 344 340 335 326 314 305 293 283 281 284 291 284 278 256 228 211 192 180 175 173 162 161 177 177 164 251 8 168 173 148 154 169 161 151 134 145 142 102 133 160 164
344 347 343 341 338 335 332 325 312 302 286 269 269 275 286 293 291 249 211 192 182 186 176 160 158 162 190 197 178 177 230 178 193 148 150 160 161 156 145 185 187 162 155 162 165
341 341 338 334 333 330 327 320 311 297 278 259 253 266 273 251 201 198 201 182 180 179 171 151 166 194 211 220 169 214 246 226 149 154 149 164 163 184 185 172 185 170 165 166 170
338 335 335 331 329 326 323 315 309 291 267 252 241 250 260 235 238 213 192 175 177 178 181 167 169 191 275 213 159 225 294 165 167 159 164 160 186 181 202 169 163 167 171 175 177
335 334 332 330 327 325 321 314 305 279 250 238 232 232 230 234 221 214 193 182 188 184 183 180 198 221 294 267 232 164 92 93 138 163 161 173 188 178 189 151 151 166 179 183 186
333 332 333 330 328 328 321 321 304 265 233 228 225 224 239 247 225 206 200 194 186 189 193 203 223 75 332 329 339 144 109 94 95 158 151 169 166 222 171 166 160 174 179 189 194
331 332 333 332 331 333 327 327 300 252 216 219 218 221 251 249 212 201 189 188 191 195 183 227 246 283 274 315 62 126 110 168 156 163 154 192 246 209 175 172 176 178 182 190 197
331 332 333 333 332 336 336 350 354 194 190 202 209 200 263 229 217 201 193 185 187 197 194 143 14 235 228 194 157 77 181 204 196 192 161 201 267 184 186 188 181 186 188 187 198
330 331 332 332 330 334 333 8 48 136 175 188 228 207 211 217 199 191 169 166 181 195 217 239 214 239 178 190 192 191 207 205 216 186 204 213 244 183 189 197 193 188 193 196 197
328 329 331 331 327 328 304 238 291 286 214 210 218 196 131 137 156 172 169 143 142 144 174 182 200 201 208 203 182 207 233 244 182 172 232 240 260 215 192 202 200 199 197 204 208
328 328 328 329 322 272 251 178 94 286 297 251 246 245 234 238 111 168 176 165 171 176 150 159 222 218 163 150 163 189 255 260 229 148 215 274 269 253 191 206 205 201 202 208 209
328 328 325 329 317 187 216 186 331 334 235 271 236 240 236 224 213 181 174 181 169 163 192 223 164 170 167 168 188 223 256 283 288 141 208 276 274 224 209 214 215 215 213 212 210
327 326 320 330 294 199 227 211 315 281 292 153 225 203 172 174 206 195 182 178 149 201 177 247 198 227 189 200 228 269 232 255 228 237 274 294 298 264 202 212 214 216 212 213 214
327 323 313 308 286 266 175 215 293 204 162 135 121 160 166 185 137 174 180 181 174 158 179 213 189 204 226 230 192 261 48 119 168 193 294 201 259 241 194 220 226 223 219 216 214
328 316 308 297 273 204 190 209 142 228 210 115 124 153 160 209 139 119 157 160 127 128 216 222 244 210 233 131 189 139 111 100 124 191 262 278 247 250 192 217 228 220 222 221 219
331 324 312 275 160 156 155 148 172 222 352 88 103 147 200 192 176 168 170 177 184 184 208 176 219 265 195 108 126 177 173 221 256 207 260 72 234 267 230 206 226 226 223 221 216
355 45 45 152 187 164 146 140 213 87 347 3 68 152 193 163 200 160 164 194 147 158 166 219 217 217 175 217 194 198 232 223 235 250 334 162 239 248 195 225 244 246 232 221 211
80 54 49 65 114 151 151 192 328 184 332 336 307 163 153 178 188 189 201 207 207 188 219 185 232 235 221 208 202 169 211 268 225 136 265 263 267 279 285 242 216 235 219 213 208
124 60 41 79 47 110 102 141 137 294 323 293 321 347 152 160 179 182 170 159 228 200 218 213 256 209 36 146 78 213 156 186 221 233 249 213 269 260 293 287 259 226 223 218 207
175 76 359 7 14 65 122 100 315 334 5 325 19 310 347 4 123 137 163 130 221 126 188 178 228 190 173 202 206 169 196 106 192 237 260 269 261 242 255 266 274 260 258 218 206
71 87 356 86 38 33 81 334 352 343 13 19 100 45 17 12 31 122 148 109 10 192 160 183 193 219 217 74 271 220 217 216 233 220 239 283 262 267 258 268 267 257 263 222 210
34 6 15 76 81 50 357 66 33 19 25 17 31 19 8 40 165 50 33 70 24 73 173 168 205 200 179 153 166 214 197 225 243 255 236 251 261 263 269 248 260 256 245 220 206
12 340 24 57 66 42 9 18 28 20 63 1 10 36 28 40 26 78 16 358 346 23 12 199 179 243 249 116 81 196 199 207 214 228 244 240 257 275 269 261 260 249 232 208 209
42 67 39 22 47 73 36 7 10 13 8 16 66 35 359 7 31 41 13 334 354 6 10 305 233 205 252 251 250 253 235 194 210 229 218 251 223 264 268 266 283 272 197 192 201
53 26 34 60 339 84 10 56 59 355 350 25 35 345 5 74 48 338 352 349 351 338 350 357 284 290 274 181 207 236 239 223 221 232 240 262 271 259 270 260 269 257 257 204 210
36 18 26 6 46 198 70 74 73 338 61 84 358 340 357 20 316 289 273 266 268 305 309 315 301 273 255 310 297 246 241 217 213 220 236 222 241 275 283 290 278 261 235 237 226